Weather History for Pinedale, WY

Change the Weather History Date:

Friday, November 8, 2013

  Actual Average (KBPI) Record (KBPI)
Temperature  
Mean Temperature 36 °F 28 °F  
Max Temperature 42 °F 43 °F 61 °F (1999)
Min Temperature 30 °F 13 °F -4 °F (1990)
Degree Days  
Heating Degree Days 29 37  
Month to date heating degree days 282  
Since 1 July heating degree days 1862  
Cooling Degree Days 0 0  
Month to date cooling degree days 0  
Year to date cooling degree days 35  
Moisture  
Dew Point 25 °F    
Average Humidity 68    
Maximum Humidity 100    
Minimum Humidity 39    
Precipitation  
Precipitation 0.00 in 0.01 in 0.06 in (2002)
Month to date precipitation 0.06  
Year to date precipitation 6.03  
Sea Level Pressure  
Sea Level Pressure 30.03 in    
Wind  
Wind Speed 8 mph (NW)    
Max Wind Speed 28 mph    
Max Gust Speed 32 mph    
Visibility 10 miles    
Events Snow    
T = Trace of Precipitation, MM = Missing Value Source: NWS Daily Summary

Daily Weather History Graph

Daily Weather History Graph

Search for Another Location

Airport:

Trip Planner

Search our weather history database for the weather conditions in past years. The results will help you decide how hot, cold, wet, or windy it might be!

Date:

Astronomy

Nov. 08, 2013 Rise Set
Actual Time 7:02 AM MST 5:02 PM MST
Civil Twilight 6:32 AM MST 5:32 PM MST
Nautical Twilight 5:58 AM MST 6:06 PM MST
Astronomical Twilight 5:25 AM MST 6:39 PM MST
Moon 12:00 PM MST (11/8) 10:28 PM MST (11/8)
Length of Visible Light 11h 00m
Length of Day
10h 00m
Waxing Crescent, 34% of the Moon is Illuminated
Nov 8
Waxing Crescent
Nov 9
First Quarter
Nov 17
Full
Nov 25
Last Quarter
Dec 2
New

Hourly Weather History & Observations

Time (MST) Temp. Windchill Dew Point Humidity Pressure Visibility Wind Dir Wind Speed Gust Speed Precip Events Conditions
12:15 AM 32.0 °F 27.5 °F 32.0 °F 100% 29.98 in 10.0 mi ESE 4.6 mph - N/A   Overcast
12:35 AM 33.8 °F 30.8 °F 32.0 °F 93% 29.97 in 10.0 mi SSE 3.5 mph - N/A   Overcast
12:55 AM 33.8 °F - 30.2 °F 87% 29.95 in 10.0 mi Calm Calm - N/A   Overcast
1:15 AM 33.8 °F - 30.2 °F 87% 29.97 in 10.0 mi Calm Calm - N/A   Overcast
1:35 AM 33.8 °F - 30.2 °F 87% 29.97 in 10.0 mi Calm Calm - N/A   Overcast
1:55 AM 32.0 °F - 30.2 °F 93% 29.97 in 10.0 mi Calm Calm - N/A   Overcast
2:15 AM 33.8 °F 28.6 °F 30.2 °F 87% 29.95 in 10.0 mi SSW 5.8 mph - N/A   Overcast
2:35 AM 35.6 °F 31.7 °F 28.4 °F 75% 29.95 in 10.0 mi SW 4.6 mph - N/A   Overcast
2:55 AM 35.6 °F 32.8 °F 28.4 °F 75% 29.95 in 10.0 mi NNE 3.5 mph - N/A   Overcast
3:15 AM 33.8 °F - 28.4 °F 81% 29.95 in 10.0 mi Calm Calm - N/A   Overcast
3:35 AM 35.6 °F 28.6 °F 28.4 °F 75% 29.97 in 10.0 mi West 9.2 mph - N/A   Overcast
3:55 AM 35.6 °F 29.2 °F 28.4 °F 75% 29.95 in 10.0 mi WSW 8.1 mph 17.3 mph N/A   Mostly Cloudy
4:15 AM 35.6 °F 29.9 °F 28.4 °F 75% 29.97 in 10.0 mi West 6.9 mph - N/A   Mostly Cloudy
4:35 AM 35.6 °F 29.2 °F 28.4 °F 75% 29.97 in 10.0 mi West 8.1 mph - N/A   Overcast
4:55 AM 35.6 °F 28.6 °F 30.2 °F 81% 29.97 in 10.0 mi West 9.2 mph - N/A   Overcast
5:15 AM 33.8 °F 27.7 °F 30.2 °F 87% 29.98 in 10.0 mi NW 6.9 mph - N/A   Overcast
5:35 AM 33.8 °F 29.6 °F 30.2 °F 87% 29.99 in 10.0 mi NNE 4.6 mph - N/A   Overcast
5:55 AM 33.8 °F 29.6 °F 32.0 °F 93% 29.99 in 10.0 mi North 4.6 mph - N/A   Overcast
6:15 AM 33.8 °F 29.6 °F 32.0 °F 93% 30.00 in 10.0 mi North 4.6 mph - N/A   Overcast
6:35 AM 33.8 °F 27.7 °F 32.0 °F 93% 29.99 in 10.0 mi NNW 6.9 mph - N/A   Overcast
6:55 AM 32.0 °F 26.4 °F 32.0 °F 100% 30.00 in 10.0 mi NNW 5.8 mph - N/A Snow Light Snow
7:15 AM 32.0 °F 27.5 °F 32.0 °F 100% 30.01 in 10.0 mi NW 4.6 mph - N/A   Overcast
7:35 AM 32.0 °F 28.7 °F 32.0 °F 100% 30.01 in 5.0 mi NW 3.5 mph - N/A Snow Light Snow
7:55 AM 32.0 °F 23.6 °F 32.0 °F 100% 30.01 in 10.0 mi WNW 10.4 mph - N/A   Overcast
8:15 AM 35.6 °F 25.2 °F 32.0 °F 87% 30.01 in 10.0 mi NW 18.4 mph - N/A   Mostly Cloudy
8:35 AM 35.6 °F 24.8 °F 30.2 °F 81% 30.03 in 10.0 mi NW 19.6 mph 25.3 mph N/A   Scattered Clouds
8:55 AM 35.6 °F 26.2 °F 30.2 °F 81% 30.03 in 10.0 mi NW 15.0 mph 25.3 mph N/A   Mostly Cloudy
9:15 AM 37.4 °F 26.9 °F 28.4 °F 70% 30.05 in 10.0 mi NW 20.7 mph 27.6 mph N/A   Mostly Cloudy
9:35 AM 37.4 °F 26.6 °F 26.6 °F 65% 30.05 in 10.0 mi NW 21.9 mph 25.3 mph N/A   Mostly Cloudy
9:55 AM 37.4 °F 26.6 °F 23.0 °F 56% 30.04 in 10.0 mi NW 21.9 mph 28.8 mph N/A   Mostly Cloudy
10:15 AM 39.2 °F 29.0 °F 23.0 °F 52% 30.05 in 10.0 mi NW 21.9 mph 31.1 mph N/A   Mostly Cloudy
10:35 AM 41.0 °F 31.1 °F 24.8 °F 53% 30.05 in 10.0 mi NW 23.0 mph 32.2 mph N/A   Mostly Cloudy
10:55 AM 41.0 °F 31.6 °F 23.0 °F 49% 30.05 in 10.0 mi NW 20.7 mph 26.5 mph N/A   Mostly Cloudy
11:15 AM 39.2 °F 29.6 °F 23.0 °F 52% 30.05 in 10.0 mi NW 19.6 mph 26.5 mph N/A   Overcast
11:35 AM 39.2 °F 29.8 °F 23.0 °F 52% 30.06 in 10.0 mi NNW 18.4 mph 24.2 mph N/A   Overcast
11:55 AM 41.0 °F 31.9 °F 23.0 °F 49% 30.05 in 10.0 mi NW 19.6 mph 25.3 mph N/A   Mostly Cloudy
12:15 PM 42.8 °F 32.7 °F 23.0 °F 46% 30.03 in 10.0 mi NW 27.6 mph 32.2 mph N/A   Clear
12:35 PM 42.8 °F 34.0 °F 23.0 °F 46% 30.03 in 10.0 mi NW 20.7 mph 29.9 mph N/A   Clear
12:55 PM 41.0 °F 32.5 °F 23.0 °F 49% 30.03 in 10.0 mi NNW 17.3 mph 25.3 mph N/A   Scattered Clouds
1:15 PM 41.0 °F 33.1 °F 23.0 °F 49% 30.03 in 10.0 mi NNW 15.0 mph - N/A   Mostly Cloudy
1:35 PM 42.8 °F 33.3 °F 23.0 °F 46% 30.03 in 10.0 mi NW 24.2 mph 27.6 mph N/A   Mostly Cloudy
1:55 PM 41.0 °F 31.9 °F 23.0 °F 49% 30.01 in 10.0 mi NW 19.6 mph 27.6 mph N/A   Scattered Clouds
2:15 PM 41.0 °F 32.2 °F 23.0 °F 49% 30.03 in 10.0 mi NW 18.4 mph 24.2 mph N/A   Scattered Clouds
2:35 PM 41.0 °F 33.1 °F 23.0 °F 49% 30.03 in 10.0 mi NNW 15.0 mph 21.9 mph N/A   Clear
2:55 PM 42.8 °F 35.4 °F 23.0 °F 46% 30.03 in 10.0 mi NW 15.0 mph 20.7 mph N/A   Scattered Clouds
3:15 PM 41.0 °F 33.5 °F 23.0 °F 49% 30.05 in 10.0 mi NW 13.8 mph - N/A   Scattered Clouds
3:35 PM 41.0 °F 32.5 °F 21.2 °F 45% 30.05 in 10.0 mi WNW 17.3 mph 26.5 mph N/A   Mostly Cloudy
3:55 PM 41.0 °F 31.9 °F 17.6 °F 39% 30.05 in 10.0 mi WNW 19.6 mph 26.5 mph N/A   Overcast
4:15 PM 39.2 °F 32.5 °F 23.0 °F 52% 30.05 in 10.0 mi NW 10.4 mph - N/A   Overcast
4:35 PM 37.4 °F 28.2 °F 15.8 °F 41% 30.06 in 10.0 mi NW 16.1 mph - N/A   Overcast
4:55 PM 37.4 °F 32.1 °F 15.8 °F 41% 30.06 in 10.0 mi NW 6.9 mph - N/A   Overcast
5:15 PM 35.6 °F - 19.4 °F 52% 30.06 in 10.0 mi Calm Calm - N/A   Overcast
5:35 PM 35.6 °F 31.7 °F 21.2 °F 56% 30.08 in 10.0 mi WNW 4.6 mph - N/A   Overcast
5:55 PM 35.6 °F 27.5 °F 21.2 °F 56% 30.08 in 10.0 mi NW 11.5 mph - N/A   Overcast
6:15 PM 35.6 °F 27.5 °F 21.2 °F 56% 30.08 in 10.0 mi NW 11.5 mph - N/A   Overcast
6:35 PM 33.8 °F 26.4 °F 21.2 °F 60% 30.09 in 10.0 mi NW 9.2 mph - N/A   Mostly Cloudy
6:55 PM 32.0 °F 24.8 °F 21.2 °F 64% 30.09 in 10.0 mi NW 8.1 mph - N/A   Scattered Clouds
7:15 PM 30.2 °F 25.4 °F 21.2 °F 69% 30.09 in 10.0 mi West 4.6 mph - N/A   Scattered Clouds
7:35 PM 32.0 °F 26.4 °F 21.2 °F 64% 30.09 in 10.0 mi West 5.8 mph - N/A   Mostly Cloudy
7:55 PM 32.0 °F 26.4 °F 21.2 °F 64% 30.09 in 10.0 mi West 5.8 mph - N/A   Mostly Cloudy
8:15 PM 32.0 °F 27.5 °F 21.2 °F 64% 30.09 in 10.0 mi West 4.6 mph - N/A   Overcast
8:35 PM 32.0 °F - 23.0 °F 69% 30.09 in 10.0 mi Calm Calm - N/A   Overcast
8:55 PM 32.0 °F - 21.2 °F 64% 30.09 in 10.0 mi Calm Calm - N/A   Overcast
9:15 PM 32.0 °F 28.7 °F 23.0 °F 69% 30.09 in 10.0 mi WNW 3.5 mph - N/A   Overcast
9:35 PM 32.0 °F 27.5 °F 23.0 °F 69% 30.09 in 10.0 mi West 4.6 mph - N/A   Overcast
9:55 PM 32.0 °F 26.4 °F 23.0 °F 69% 30.10 in 10.0 mi West 5.8 mph - N/A   Overcast
10:15 PM 32.0 °F 27.5 °F 23.0 °F 69% 30.11 in 10.0 mi WNW 4.6 mph - N/A   Overcast
10:35 PM 32.0 °F 27.5 °F 23.0 °F 69% 30.11 in 10.0 mi West 4.6 mph - N/A   Overcast
10:55 PM 32.0 °F 28.7 °F 23.0 °F 69% 30.11 in 10.0 mi West 3.5 mph - N/A   Overcast
11:15 PM 32.0 °F 26.4 °F 23.0 °F 69% 30.11 in 10.0 mi WNW 5.8 mph - N/A   Overcast
11:35 PM 32.0 °F 26.4 °F 23.0 °F 69% 30.11 in 10.0 mi West 5.8 mph - N/A   Overcast
11:55 PM 33.8 °F 28.6 °F 23.0 °F 65% 30.12 in 10.0 mi WNW 5.8 mph - N/A   Overcast